RH
2 3 3 4 7 5 5 7 8 9 12 14 27 28 37 64 80 57 78 94 98 95 98 100 98 97 96 70 76 83 99 97 96 95 88 81 80 99 90 76 86 66 68 46
2 2 3 6 6 4 4 6 9 10 12 23 33 31 33 57 63 80 92 98 98 96 98 100 96 98 89 66 80 94 94 97 97 96 96 99 94 92 88 79 64 66 52 45
2 3 4 6 6 4 5 7 10 8 13 30 36 49 55 50 57 91 84 92 96 97 99 100 98 98 98 99 82 99 98 92 83 70 70 67 61 60 69 81 73 73 64 49
2 3 4 6 7 4 7 9 9 4 13 27 39 52 60 65 55 62 52 83 77 91 95 98 98 98 98 98 84 98 96 95 83 76 73 78 70 71 81 84 83 75 64 50
3 3 4 7 7 4 8 12 8 4 13 27 40 51 62 46 51 52 56 41 43 85 90 96 98 94 98 97 98 98 94 95 90 84 79 77 75 75 75 83 83 76 67 49
3 3 4 5 6 5 9 15 8 4 14 28 39 50 66 62 66 71 63 36 27 56 87 97 88 82 87 98 97 93 87 86 87 86 76 68 60 59 65 68 66 64 64 45
5 4 4 5 6 6 12 16 6 5 14 22 34 42 52 61 67 58 61 27 27 57 81 78 85 85 84 91 96 82 82 75 70 74 59 54 51 52 52 57 59 52 54 52
28 7 4 7 5 10 17 18 5 6 15 23 30 35 42 56 49 40 30 16 32 67 81 93 92 94 86 86 91 89 86 75 70 76 67 56 64 66 57 60 68 70 76 63
65 7 4 7 6 11 20 20 4 7 16 26 27 29 37 47 55 35 38 41 58 65 99 100 98 92 90 90 87 87 82 82 76 75 73 53 69 64 71 76 93 87 83 73
71 5 5 7 11 14 22 19 4 7 17 24 26 28 30 38 52 53 53 62 70 64 79 96 98 94 88 87 85 91 92 88 93 85 79 68 68 62 71 81 90 92 87 80
18 5 6 7 26 21 24 18 5 9 16 25 28 26 25 28 36 43 56 63 74 78 75 89 98 99 90 95 84 84 86 85 87 91 80 71 74 73 78 90 84 83 82 89
26 5 7 13 35 33 20 17 5 10 16 24 27 27 30 27 28 32 46 56 66 67 74 80 99 100 100 94 87 89 90 83 81 78 75 70 82 83 86 86 83 83 81 87
23 11 8 28 37 23 21 16 5 9 16 25 27 29 33 32 34 27 24 42 54 71 74 88 98 96 99 98 98 90 88 89 85 81 86 88 87 89 85 87 88 88 91 94
50 16 14 39 31 20 22 9 5 9 16 25 28 29 32 36 40 42 30 13 41 55 77 82 90 94 98 98 99 96 91 90 90 88 89 84 83 90 85 83 93 98 88 96
36 10 37 38 30 20 23 7 7 9 15 24 25 34 38 40 44 44 44 24 13 46 65 78 78 82 93 97 98 86 87 84 89 94 86 80 78 79 93 93 90 92 96 94
17 20 39 30 22 22 26 5 8 10 15 25 27 34 44 42 44 48 54 52 34 36 69 76 75 76 67 73 77 78 78 77 73 78 85 91 88 84 85 93 96 88 96 97
19 32 46 44 20 27 25 7 7 9 14 25 35 42 47 48 54 54 55 55 57 57 41 57 81 77 64 61 50 67 78 85 88 87 86 86 77 80 87 92 93 97 95 95
18 50 46 67 25 29 24 6 8 9 13 27 40 46 49 52 53 54 56 55 57 71 70 59 58 82 88 85 63 70 55 53 79 87 85 83 72 78 92 92 92 91 90 90
28 45 58 79 51 27 13 6 6 8 15 30 36 44 50 49 52 54 59 56 59 64 73 85 91 94 73 80 85 82 81 73 71 78 75 82 76 87 94 96 94 91 91 91
46 48 50 76 52 31 10 7 8 16 20 31 36 44 51 48 49 52 64 67 73 86 83 96 99 88 87 89 91 92 90 77 89 100 86 70 90 96 99 97 96 95 92 87
56 60 49 82 45 22 8 8 14 23 29 33 39 44 49 51 48 46 60 70 82 98 95 98 94 95 86 92 96 97 97 96 84 92 98 99 98 98 99 97 89 85 86 85
74 61 58 86 47 24 9 15 20 23 29 33 39 46 48 45 42 45 61 73 85 99 99 100 92 70 85 90 92 91 90 93 96 82 95 98 98 98 97 92 90 93 97 94
73 63 88 62 48 13 14 16 20 17 18 31 37 42 47 44 46 46 53 82 97 96 100 100 84 86 90 90 88 88 94 98 97 96 96 95 95 97 97 96 95 96 99 100
80 84 64 56 21 10 13 11 14 14 23 31 40 51 48 46 46 51 61 87 95 100 98 94 91 84 87 88 85 91 94 96 96 96 96 96 96 97 97 97 96 96 96 95
91 79 75 60 13 8 12 15 20 23 28 36 49 53 54 51 52 55 71 89 94 95 92 88 86 81 83 88 87 92 97 98 96 96 96 96 96 96 96 96 96 96 95 91
88 87 48 29 14 9 12 20 26 28 31 44 53 56 55 53 56 70 71 91 83 79 81 85 86 84 83 86 91 94 96 99 97 95 96 96 96 96 96 95 95 95 94 77
91 70 37 17 12 14 20 32 34 31 38 51 61 59 54 56 56 60 58 41 38 54 65 68 68 69 85 81 84 86 94 96 96 97 96 96 96 95 94 79 60 52 59 68
Wind_Speed
17 12 12 15 18 21 27 33 28 31 24 28 25 24 21 12 14 17 14 13 12 13 9 9 7 4 7 14 14 8 1 7 7 7 7 10 13 16 9 3 3 4 1 6
18 15 13 14 16 21 28 33 30 31 27 21 22 19 16 12 13 12 8 9 13 19 9 5 11 10 10 17 15 10 6 7 9 9 4 5 12 17 17 7 4 4 0 7
20 16 14 14 16 20 28 33 26 30 28 22 19 19 19 17 12 6 10 9 6 10 4 8 10 10 6 11 16 9 4 6 3 3 5 7 14 17 21 22 11 7 9 7
22 17 15 14 16 20 28 32 31 35 23 20 18 19 22 19 17 11 7 4 11 14 16 7 13 15 8 12 14 8 5 3 3 2 3 4 7 13 21 23 22 11 11 19
22 19 16 15 16 20 27 31 33 36 24 20 18 19 19 19 16 10 9 6 5 7 7 9 7 13 8 2 9 7 7 2 9 3 1 2 3 3 8 18 21 24 25 27
22 20 16 15 16 20 27 31 34 35 26 20 21 21 18 19 18 8 8 4 4 5 4 3 7 9 10 11 8 9 7 5 3 1 1 2 3 3 9 10 13 14 21 16
23 21 16 15 16 20 25 29 33 33 23 18 18 18 18 18 18 12 6 7 6 6 2 5 5 4 5 7 6 5 5 2 1 1 3 2 3 1 1 2 3 7 14 15
22 21 17 14 15 19 24 28 31 30 19 16 17 17 18 17 17 13 12 9 5 4 3 9 5 3 2 2 3 4 4 3 1 0 2 3 1 2 1 2 1 2 4 7
25 21 16 14 14 18 24 27 29 27 18 15 14 16 16 14 13 13 11 10 9 5 8 6 2 2 2 2 3 6 7 7 4 2 2 0 2 2 2 1 2 4 5 6
26 21 15 13 13 16 21 25 26 24 16 13 14 16 14 14 13 12 9 10 3 6 4 3 2 3 3 1 2 3 5 6 6 4 2 3 3 4 1 1 1 7 10 10
22 20 14 12 11 16 21 22 22 21 17 11 15 14 14 11 10 7 3 4 4 4 2 2 1 1 4 3 3 3 3 5 4 5 2 3 2 2 2 1 3 6 8 10
24 20 14 11 11 16 19 20 20 20 15 9 14 11 12 12 9 6 3 2 5 6 5 4 3 1 3 3 2 5 3 4 3 5 2 2 0 2 2 2 4 6 6 7
25 20 15 11 9 13 16 20 19 20 13 7 12 9 11 12 12 10 5 5 8 5 7 6 6 3 3 3 5 4 5 5 4 2 2 2 4 5 5 6 6 5 7 6
27 21 15 10 10 10 13 17 16 17 11 9 9 7 9 12 11 13 13 7 9 9 11 6 5 5 5 7 6 8 7 4 5 5 5 4 6 6 8 8 7 6 4 3
25 21 16 9 10 7 12 15 11 13 12 8 5 3 7 9 12 14 14 12 7 8 10 13 8 8 6 7 10 9 8 7 7 5 9 11 11 11 7 9 8 6 7 6
27 23 15 15 9 7 13 13 10 12 11 7 3 2 2 6 12 15 14 13 11 5 7 8 16 14 11 6 6 7 10 11 12 13 10 6 6 7 10 9 14 12 13 10
29 22 16 18 9 9 12 13 13 11 11 5 3 2 2 5 11 13 11 10 10 9 6 8 9 14 13 14 17 10 10 12 13 13 12 10 11 11 11 13 12 10 10 11
26 21 15 19 12 11 13 16 12 12 11 2 3 3 2 3 10 11 11 6 8 9 5 5 6 8 15 15 15 19 18 17 21 23 22 20 16 13 12 11 11 12 13 15
28 22 18 19 19 13 13 14 14 13 5 3 4 4 2 4 8 9 10 6 6 5 6 5 7 6 6 5 9 14 15 16 21 20 17 16 15 15 14 14 14 14 15 17
29 27 20 22 17 14 13 15 15 4 4 4 4 5 4 3 5 7 8 4 4 6 4 8 6 8 7 6 6 9 13 20 17 14 18 21 15 14 15 15 16 17 19 22
32 26 26 24 14 13 15 9 6 5 4 4 4 4 5 4 5 7 3 4 4 3 3 4 4 6 6 7 10 14 14 12 15 20 15 15 18 18 19 18 19 22 23 24
29 26 25 17 14 11 8 8 7 6 5 6 5 4 5 5 7 5 3 3 3 4 4 5 4 6 9 12 16 17 19 15 11 16 20 18 18 20 20 21 22 24 21 15
28 28 22 10 13 12 9 11 8 7 6 7 5 5 5 4 1 3 3 2 3 5 5 5 7 8 14 17 17 17 13 9 11 10 13 16 17 19 21 23 22 17 8 6
30 25 15 12 10 10 17 14 10 7 8 6 6 6 5 4 3 4 3 3 4 4 5 6 8 12 11 13 15 11 10 10 10 11 11 12 13 15 15 17 12 10 7 6
24 14 12 17 13 13 11 13 11 9 8 7 7 7 6 6 5 4 5 5 6 7 7 8 9 11 12 13 14 11 8 6 7 8 8 7 5 4 5 6 6 3 4 7
17 14 12 17 17 17 16 14 12 11 9 9 9 7 5 7 6 7 7 5 7 7 9 11 12 14 13 13 12 10 6 3 2 1 1 1 1 1 2 4 6 7 8 12
17 18 20 14 12 12 14 15 14 13 12 11 8 6 8 5 7 7 10 12 12 13 15 17 18 19 19 18 18 14 12 9 7 6 5 4 6 6 6 9 10 11 13 16
Wind_Direction
240 266 295 314 330 343 351 352 351 351 350 341 345 345 337 1 343 337 336 331 342 330 340 347 330 200 146 168 168 202 60 136 147 120 147 216 213 189 176 200 204 119 67 117
241 257 285 309 326 343 351 354 355 355 349 343 356 15 3 15 348 345 356 354 336 320 336 357 1 354 128 173 173 171 167 141 127 137 199 204 207 194 205 216 170 178 314 136
240 252 278 303 319 341 353 356 356 357 351 357 5 16 11 2 15 32 333 340 326 46 42 23 9 25 87 157 169 166 142 149 108 103 121 191 195 202 216 215 212 202 212 221
240 248 274 295 315 341 351 358 1 2 358 7 8 12 12 2 353 359 5 332 354 4 22 61 32 41 108 160 178 190 138 147 153 120 100 136 179 214 215 216 220 213 249 255
237 246 267 298 320 341 356 355 2 4 4 11 14 18 16 21 22 22 357 350 4 354 18 19 54 55 76 88 146 150 136 148 158 135 125 195 205 207 205 222 230 239 250 258
235 246 264 293 313 337 354 350 357 3 11 16 15 16 17 18 9 10 354 28 22 37 56 108 99 86 84 76 95 80 67 74 115 129 345 356 339 260 239 243 251 255 249 268
235 242 259 286 310 338 346 348 359 6 15 23 18 17 21 15 20 34 78 84 45 42 4 156 115 113 102 95 102 102 98 103 73 33 113 164 148 357 306 302 297 244 251 266
232 241 255 279 307 338 341 348 360 9 19 28 25 23 24 22 37 56 77 84 56 71 43 122 114 120 117 211 210 193 170 174 227 240 252 282 337 10 62 129 311 307 303 276
232 236 248 273 306 342 339 346 357 9 17 31 29 29 33 48 54 66 69 75 77 48 113 127 152 169 194 178 205 220 209 207 204 202 244 202 135 24 23 26 165 334 323 309
213 226 241 269 308 343 338 346 359 5 11 23 19 24 28 46 65 90 74 47 80 154 139 87 137 130 163 187 203 192 188 199 209 214 278 308 285 316 301 242 199 344 338 335
202 219 234 264 311 340 333 346 358 4 4 16 16 23 31 37 43 48 112 86 87 146 147 151 88 159 173 189 198 194 184 172 191 209 224 275 340 322 335 175 315 318 339 342
198 216 226 255 304 329 333 347 356 3 358 18 17 18 20 37 28 18 3 202 194 199 193 198 170 352 200 197 215 215 222 185 178 185 200 204 82 308 300 279 290 290 306 332
195 210 222 244 303 326 337 344 356 1 1 21 17 15 14 19 22 13 323 273 257 245 214 187 185 175 244 255 248 220 221 214 220 173 123 187 260 263 263 288 266 275 282 284
194 207 216 239 283 316 336 343 355 357 2 356 8 12 13 16 6 4 360 300 262 245 231 227 218 200 226 244 249 206 209 223 244 254 251 264 277 274 270 262 249 247 281 270
188 199 202 235 272 310 331 335 349 352 6 343 2 11 18 18 13 8 5 359 309 261 242 226 231 242 266 242 245 243 226 231 242 250 266 278 274 256 265 237 243 253 254 260
190 197 201 233 261 315 323 329 334 347 355 354 334 310 12 10 8 3 346 352 355 302 252 251 242 240 246 256 251 239 242 243 247 250 249 256 296 286 249 253 247 256 257 253
193 195 203 222 255 291 315 313 320 333 343 332 260 202 331 353 356 357 343 328 338 346 294 266 261 236 232 240 242 249 264 251 238 235 240 251 282 281 262 258 261 259 262 265
190 189 215 209 250 275 303 306 313 318 329 248 207 216 265 336 352 350 342 327 323 333 338 310 268 250 246 257 260 254 256 246 249 251 254 261 276 265 255 253 259 266 267 268
191 200 212 218 237 278 291 296 304 311 281 230 220 241 254 333 347 350 342 334 339 323 330 326 311 276 241 246 242 250 261 250 245 248 247 245 244 240 246 256 261 264 267 271
190 190 200 213 228 261 287 293 297 209 200 215 221 240 239 300 351 348 333 331 347 319 323 326 303 288 270 273 287 306 284 259 258 260 249 238 234 235 239 250 262 268 272 275
186 186 203 209 232 262 284 269 216 205 198 199 210 231 258 289 309 318 307 305 300 287 292 295 267 275 320 321 305 306 309 301 255 242 234 223 228 232 246 260 276 282 282 281
189 193 207 202 228 259 250 223 208 200 203 202 208 231 260 289 294 269 261 252 240 256 271 267 258 296 310 315 313 308 300 287 280 246 238 240 243 249 258 270 275 282 284 283
187 187 195 199 210 225 217 205 196 188 217 214 223 253 271 279 281 254 239 226 242 288 247 241 263 300 307 310 312 313 318 284 257 250 251 254 253 257 258 262 269 272 247 266
183 194 183 196 208 214 222 212 199 214 214 219 232 234 230 251 265 230 206 223 236 245 240 243 268 307 321 328 331 324 316 302 267 241 251 250 249 256 260 261 239 224 241 263
180 175 193 210 220 226 212 205 209 215 221 217 214 226 239 234 220 204 198 214 229 233 237 247 285 306 315 323 333 336 332 315 285 261 243 235 230 235 235 235 238 248 295 307
183 187 199 204 215 223 214 215 213 226 234 220 220 239 238 221 208 201 197 219 227 251 263 267 282 297 306 315 322 330 336 357 37 45 107 120 115 266 288 299 295 287 292 305
193 197 196 209 214 215 222 220 221 238 236 223 221 226 219 216 221 212 221 247 278 282 284 287 290 288 284 286 290 295 290 276 256 240 235 263 294 301 322 320 309 305 304 299